Weather History for KMSN - October, 2013

Change the Weather History Date:

Friday, October 4, 2013

  Actual Average Record
Temperature  
Mean Temperature 65 °F 53 °F  
Max Temperature 68 °F 64 °F 87 °F (2005)
Min Temperature 61 °F 42 °F 25 °F (1989)
Degree Days  
Heating Degree Days 0 12  
Month to date heating degree days 5 46  
Since 1 July heating degree days 162 254  
Cooling Degree Days 0 0  
Month to date cooling degree days 2 0  
Year to date cooling degree days 709 564  
Growing Degree Days 14 (Base 50)    
Moisture  
Dew Point 63 °F    
Average Humidity 94    
Maximum Humidity 100    
Minimum Humidity 87    
Precipitation  
Precipitation 0.61 in 0.08 in 1.42 in (1919)
Month to date precipitation 0.61 0.32  
Year to date precipitation 40.28 28.27  
Snow  
Snow 0.00 in 0.00 in T in (1935)
Month to date snowfall 0.0 0.0  
Since 1 July snowfall 0.0 0.0  
Since 1 September snowfall 0.0 0.0  
Snow Depth 0.00 in    
Sea Level Pressure  
Sea Level Pressure 29.93 in    
Wind  
Wind Speed 6 mph (East)    
Max Wind Speed 16 mph    
Max Gust Speed 20 mph    
Visibility 6 miles    
Events Fog , Rain , Thunderstorm    
T = Trace of Precipitation, MM = Missing Value Source: NWS Daily Summary

Daily Weather History Graph

Daily Weather History Graph

Search for Another Location

Airport or City:

Trip Planner

Search our weather history database for the weather conditions in past years. The results will help you decide how hot, cold, wet, or windy it might be!

Date:

Astronomy

Oct. 04, 2013 Rise Set
Actual Time 6:58 AM CDT 6:32 PM CDT
Civil Twilight 6:30 AM CDT 7:01 PM CDT
Nautical Twilight 5:57 AM CDT 7:34 PM CDT
Astronomical Twilight 5:23 AM CDT 8:07 PM CDT
Moon 6:34 AM CDT (10/4) 6:14 PM CDT (10/4)
Length of Visible Light 12h 31m
Length of Day
11h 34m
Waning Crescent, 0% of the Moon is Illuminated
Oct 4
Waning Crescent
Oct 4
New
Oct 11
First Quarter
Oct 18
Full
Oct 26
Last Quarter

Hourly Weather History & Observations

Time (CDT) Temp. Dew Point Humidity Pressure Visibility Wind Dir Wind Speed Gust Speed Precip Events Conditions
12:06 AM 66.2 °F 64.4 °F 94% 29.89 in 8.0 mi Calm Calm - N/A   Mostly Cloudy
12:28 AM 64.4 °F 64.4 °F 100% 29.88 in 7.0 mi Calm Calm - N/A   Mostly Cloudy
12:53 AM 64.0 °F 63.0 °F 96% 29.86 in 7.0 mi Calm Calm - N/A   Partly Cloudy
1:41 AM 64.4 °F 62.6 °F 94% 29.89 in 2.5 mi Calm Calm - N/A   Scattered Clouds
1:49 AM 62.6 °F 62.6 °F 100% 29.89 in 4.0 mi Calm Calm - N/A   Mostly Cloudy
1:50 AM 63.0 °F 63.0 °F 100% 29.88 in 3.0 mi Calm Calm - N/A   Mostly Cloudy
1:52 AM 62.6 °F 62.6 °F 100% 29.89 in 1.8 mi Calm Calm - N/A   Mostly Cloudy
2:04 AM 62.6 °F 62.6 °F 100% 29.89 in 3.0 mi Calm Calm - N/A   Overcast
2:10 AM 64.4 °F 62.6 °F 94% 29.89 in 1.8 mi Calm Calm - N/A   Overcast
2:21 AM 62.6 °F 60.8 °F 94% 29.88 in 4.0 mi Calm Calm - N/A   Mostly Cloudy
2:53 AM 63.0 °F 62.1 °F 97% 29.89 in 9.0 mi Calm Calm - N/A   Mostly Cloudy
3:53 AM 63.0 °F 62.1 °F 97% 29.89 in 6.0 mi Calm Calm - N/A   Partly Cloudy
4:14 AM 62.6 °F 62.6 °F 100% 29.90 in 1.8 mi Calm Calm - N/A   Clear
4:16 AM 62.6 °F 62.6 °F 100% 29.90 in 1.0 mi Calm Calm - N/A   Mist
4:24 AM 62.6 °F 62.6 °F 100% 29.91 in 0.5 mi Calm Calm - N/A Fog Fog
4:31 AM 60.8 °F 60.8 °F 100% 29.91 in 0.2 mi Calm Calm - N/A Fog Fog
4:37 AM 62.6 °F 60.8 °F 94% 29.91 in 1.0 mi Calm Calm - N/A   Mist
4:42 AM 62.6 °F 60.8 °F 94% 29.91 in 3.0 mi Calm Calm - N/A   Mostly Cloudy
4:53 AM 62.1 °F 61.0 °F 96% 29.91 in 3.0 mi Calm Calm - N/A   Mostly Cloudy
4:57 AM 62.6 °F 62.6 °F 100% 29.92 in 0.8 mi Calm Calm - N/A   Mostly Cloudy
5:12 AM 62.6 °F 62.6 °F 100% 29.93 in 2.0 mi Calm Calm - N/A   Mostly Cloudy
5:19 AM 62.6 °F 62.6 °F 100% 29.93 in 7.0 mi Calm Calm - N/A   Overcast
5:41 AM 62.6 °F 62.6 °F 100% 29.93 in 4.0 mi Calm Calm - N/A   Overcast
5:53 AM 63.0 °F 62.1 °F 97% 29.92 in 5.0 mi NNW 3.5 mph - N/A Thunderstorm Overcast
6:13 AM 62.6 °F 62.6 °F 100% 29.93 in 5.0 mi Calm Calm - N/A Thunderstorm Overcast
6:21 AM 62.6 °F 62.6 °F 100% 29.94 in 7.0 mi Calm Calm - N/A Thunderstorm Thunderstorm
6:33 AM 64.4 °F 62.6 °F 94% 29.95 in 2.5 mi Variable 3.5 mph - 0.04 in Rain , Thunderstorm Thunderstorms and Rain
6:36 AM 64.4 °F 64.4 °F 100% 29.95 in 1.0 mi West 4.6 mph - 0.06 in Rain , Thunderstorm Thunderstorms and Rain
6:42 AM 64.4 °F 64.4 °F 100% 29.95 in 0.8 mi Calm Calm - 0.19 in Rain , Thunderstorm Thunderstorms and Rain
6:48 AM 64.4 °F 64.4 °F 100% 29.95 in 1.0 mi Calm Calm - 0.40 in Rain , Thunderstorm Thunderstorms and Rain
6:53 AM 64.9 °F 64.0 °F 97% 29.94 in 1.0 mi SW 4.6 mph - 0.46 in Rain , Thunderstorm Thunderstorms and Rain
6:59 AM 64.4 °F 64.4 °F 100% 29.95 in 2.0 mi Calm Calm - 0.03 in Rain , Thunderstorm Light Thunderstorms and Rain
7:03 AM 64.4 °F 64.4 °F 100% 29.95 in 6.0 mi Variable 3.5 mph - 0.03 in Rain , Thunderstorm Light Thunderstorms and Rain
7:33 AM 64.4 °F 62.6 °F 94% 29.93 in 6.0 mi NNE 6.9 mph - 0.08 in Rain Rain
7:46 AM 64.4 °F 64.4 °F 100% 29.95 in 10.0 mi South 8.1 mph - 0.08 in Rain Light Rain
7:53 AM 64.9 °F 64.0 °F 97% 29.95 in 10.0 mi SSW 3.5 mph - 0.08 in Rain Light Rain
8:30 AM 66.2 °F 64.4 °F 94% 29.98 in 8.0 mi South 6.9 mph - 0.01 in Rain Light Rain
8:41 AM 64.4 °F 64.4 °F 100% 29.94 in 7.0 mi ESE 10.4 mph - 0.01 in Rain Light Rain
8:53 AM 64.9 °F 64.0 °F 97% 29.93 in 6.0 mi ESE 9.2 mph - 0.01 in Rain Light Rain
9:53 AM 66.0 °F 64.0 °F 93% 29.93 in 10.0 mi South 8.1 mph - 0.00 in   Mostly Cloudy
10:00 AM 66.2 °F 64.4 °F 94% 29.93 in 10.0 mi South 5.8 mph - N/A   Mostly Cloudy
10:47 AM 66.2 °F 64.4 °F 94% 29.94 in 10.0 mi South 3.5 mph - N/A   Scattered Clouds
10:53 AM 66.9 °F 64.0 °F 90% 29.94 in 10.0 mi Calm Calm - N/A   Scattered Clouds
11:11 AM 66.2 °F 64.4 °F 94% 29.96 in 10.0 mi North 4.6 mph - N/A   Mostly Cloudy
11:53 AM 66.9 °F 64.9 °F 93% 29.99 in 9.0 mi WNW 4.6 mph - 0.00 in Rain Light Rain
12:34 PM 66.2 °F 64.4 °F 94% 30.01 in 2.5 mi NNE 5.8 mph - 0.02 in Rain Light Rain
12:53 PM 64.9 °F 64.0 °F 97% 30.00 in 2.5 mi NE 6.9 mph - 0.03 in Rain Light Rain
1:53 PM 64.9 °F 64.0 °F 97% 29.98 in 6.0 mi East 6.9 mph - 0.02 in   Overcast
2:15 PM 66.2 °F 64.4 °F 94% 29.97 in 4.0 mi ENE 8.1 mph - 0.01 in Rain Light Rain
2:53 PM 66.9 °F 64.9 °F 93% 29.91 in 10.0 mi East 13.8 mph - 0.01 in   Scattered Clouds
3:30 PM 68.0 °F 64.4 °F 88% 29.94 in 10.0 mi ENE 10.4 mph - N/A   Mostly Cloudy
3:53 PM 66.0 °F 64.0 °F 93% 29.93 in 4.0 mi ENE 15.0 mph - N/A   Overcast
4:53 PM 66.0 °F 64.0 °F 93% 29.94 in 10.0 mi ENE 5.8 mph - 0.00 in   Mostly Cloudy
5:53 PM 66.0 °F 64.0 °F 93% 29.95 in 10.0 mi East 8.1 mph - N/A   Mostly Cloudy
6:35 PM 66.2 °F 62.6 °F 88% 29.95 in 10.0 mi East 6.9 mph - N/A   Mostly Cloudy
6:53 PM 66.0 °F 64.0 °F 93% 29.95 in 10.0 mi East 5.8 mph - N/A   Mostly Cloudy
7:32 PM 66.2 °F 64.4 °F 94% 29.96 in 9.0 mi Calm Calm - N/A   Overcast
7:53 PM 66.0 °F 63.0 °F 90% 29.97 in 9.0 mi East 4.6 mph - N/A   Overcast
8:53 PM 64.9 °F 63.0 °F 93% 29.95 in 7.0 mi East 10.4 mph - 0.00 in   Overcast
9:53 PM 63.0 °F 61.0 °F 93% 29.97 in 8.0 mi East 9.2 mph - N/A   Overcast
10:53 PM 62.1 °F 61.0 °F 96% 29.96 in 7.0 mi ESE 13.8 mph 19.6 mph N/A   Overcast
11:53 PM 61.0 °F 60.1 °F 97% 29.95 in 7.0 mi East 10.4 mph - N/A   Overcast